Weather History for KSIF - June, 2013

Change the Weather History Date:

Wednesday, June 26, 2013

  Actual Average (KGSO) Record (KGSO)
Temperature  
Mean Temperature 79 °F 77 °F  
Max Temperature 90 °F 87 °F 102 °F (1914)
Min Temperature 68 °F 68 °F 50 °F (1979)
Degree Days  
Heating Degree Days 0 0  
Month to date heating degree days 5  
Since 1 June heating degree days 5  
Since 1 July heating degree days 3617  
Cooling Degree Days 14 12  
Month to date cooling degree days 255  
Year to date cooling degree days 414  
Since 1 June cooling degree days 255  
Growing Degree Days 29 (Base 50)    
Moisture  
Dew Point 70 °F    
Average Humidity 85    
Maximum Humidity 100    
Minimum Humidity 52    
Precipitation  
Precipitation 0.38 in 0.12 in 1.72 in (1918)
Month to date precipitation 3.26  
Year to date precipitation 19.96  
Sea Level Pressure  
Sea Level Pressure 29.98 in    
Wind  
Wind Speed 3 mph (SW)    
Max Wind Speed 10 mph    
Max Gust Speed -    
Visibility 9 miles    
Events Rain    
T = Trace of Precipitation, MM = Missing Value Source: NWS Daily Summary

Daily Weather History Graph

Daily Weather History Graph

Search for Another Location

Airport or City:

Trip Planner

Search our weather history database for the weather conditions in past years. The results will help you decide how hot, cold, wet, or windy it might be!

Date:

Astronomy

Jun. 26, 2013 Rise Set
Actual Time 6:03 AM EDT 8:41 PM EDT
Civil Twilight 5:32 AM EDT 9:11 PM EDT
Nautical Twilight 4:54 AM EDT 9:49 PM EDT
Astronomical Twilight 4:12 AM EDT 10:32 PM EDT
Moon 11:11 PM EDT (6/26) 9:46 AM EDT (6/26)
Length of Visible Light 15h 39m
Length of Day
14h 38m
Waning Gibbous, 85% of the Moon is Illuminated
Jun 26
Waning Gibbous
Jun 30
Last Quarter
Jul 8
New
Jul 15
First Quarter
Jul 22
Full

Hourly Weather History & Observations

Time (EDT) Temp. Heat Index Dew Point Humidity Pressure Visibility Wind Dir Wind Speed Gust Speed Precip Events Conditions
12:15 AM 73.4 °F - 70.7 °F 91% 30.03 in 10.0 mi SSW 3.5 mph - N/A   Clear
12:35 AM 73.2 °F - 70.2 °F 90% 30.03 in 10.0 mi SW 3.5 mph - N/A   Clear
12:55 AM 72.9 °F - 70.7 °F 93% 30.02 in 10.0 mi SSW 4.6 mph - N/A   Clear
1:15 AM 73.0 °F - 70.7 °F 92% 30.01 in 10.0 mi Calm Calm - N/A   Clear
1:35 AM 72.9 °F - 70.7 °F 93% 30.01 in 10.0 mi Calm Calm - N/A   Clear
1:55 AM 72.1 °F - 70.5 °F 95% 30.01 in 10.0 mi SSW 3.5 mph - N/A   Clear
2:15 AM 72.5 °F - 70.7 °F 94% 30.00 in 10.0 mi Calm Calm - N/A   Clear
2:35 AM 72.1 °F - 70.3 °F 94% 30.00 in 10.0 mi SSW 3.5 mph - N/A   Clear
2:55 AM 71.8 °F - 70.2 °F 95% 30.00 in 10.0 mi Calm Calm - N/A   Clear
3:15 AM 69.8 °F - 68.2 °F 95% 30.00 in 7.0 mi Calm Calm - N/A   Clear
3:35 AM 70.2 °F - 69.8 °F 99% 29.99 in 7.0 mi SSW 3.5 mph - N/A   Clear
3:55 AM 69.8 °F - 68.2 °F 95% 29.98 in 7.0 mi Calm Calm - N/A   Clear
4:15 AM 70.3 °F - 69.3 °F 96% 29.98 in 10.0 mi Calm Calm - N/A   Clear
4:35 AM 69.8 °F - 68.5 °F 96% 29.98 in 10.0 mi Calm Calm - N/A   Clear
4:55 AM 70.5 °F - 68.9 °F 95% 29.99 in 10.0 mi WSW 4.6 mph - N/A   Clear
5:15 AM 70.7 °F - 68.5 °F 93% 30.00 in 10.0 mi SW 3.5 mph - N/A   Clear
5:35 AM 70.2 °F - 68.5 °F 95% 30.01 in 10.0 mi WSW 3.5 mph - N/A   Clear
5:55 AM 70.2 °F - 68.2 °F 93% 30.01 in 10.0 mi SW 4.6 mph - N/A   Clear
6:15 AM 69.8 °F - 68.0 °F 94% 30.01 in 10.0 mi WSW 3.5 mph - N/A   Clear
6:35 AM 70.0 °F - 68.0 °F 93% 30.01 in 10.0 mi SW 4.6 mph - N/A   Clear
6:55 AM 70.3 °F - 68.0 °F 92% 30.01 in 10.0 mi SW 5.8 mph - N/A   Clear
7:15 AM 70.9 °F - 68.2 °F 91% 30.02 in 10.0 mi WSW 5.8 mph - N/A   Clear
7:35 AM 71.8 °F - 68.5 °F 89% 30.03 in 10.0 mi SW 4.6 mph - N/A   Clear
7:55 AM 72.5 °F - 68.7 °F 88% 30.03 in 10.0 mi WSW 6.9 mph - N/A   Clear
8:15 AM 73.4 °F - 69.1 °F 86% 30.03 in 10.0 mi SW 6.9 mph - N/A   Clear
8:35 AM 74.3 °F - 69.3 °F 84% 30.02 in 10.0 mi SSW 4.6 mph - N/A   Clear
8:55 AM 75.2 °F - 69.4 °F 82% 30.02 in 10.0 mi SW 6.9 mph - N/A   Clear
9:15 AM 77.2 °F - 70.2 °F 79% 30.01 in 10.0 mi SW 6.9 mph - N/A   Clear
9:35 AM 78.1 °F - 70.2 °F 77% 30.01 in 10.0 mi SW 5.8 mph - N/A   Clear
9:55 AM 79.2 °F - 70.2 °F 74% 30.01 in 10.0 mi SW 5.8 mph - N/A   Clear
10:15 AM 80.2 °F 83.5 °F 70.0 °F 71% 30.00 in 10.0 mi SSW 6.9 mph - N/A   Clear
10:55 AM 82.4 °F 86.3 °F 69.8 °F 66% 29.99 in 10.0 mi SW 6.9 mph - N/A   Clear
11:15 AM 83.7 °F 88.3 °F 70.9 °F 65% 29.99 in 10.0 mi West 3.5 mph - N/A   Clear
11:35 AM 84.6 °F 90.0 °F 71.4 °F 65% 29.99 in 10.0 mi WSW 5.8 mph - N/A   Clear
11:55 AM 85.5 °F 91.1 °F 71.4 °F 63% 29.99 in 10.0 mi WSW 4.6 mph - N/A   Clear
12:15 PM 85.6 °F 90.8 °F 70.9 °F 61% 29.99 in 10.0 mi SW 6.9 mph - N/A   Clear
12:35 PM 86.2 °F 92.2 °F 72.0 °F 62% 29.99 in 10.0 mi WSW 5.8 mph - N/A   Clear
12:55 PM 86.9 °F 93.3 °F 72.1 °F 61% 29.98 in 10.0 mi Calm Calm - N/A   Clear
1:15 PM 87.8 °F 93.8 °F 71.2 °F 58% 29.98 in 10.0 mi West 3.5 mph - N/A   Scattered Clouds
1:35 PM 88.7 °F 95.7 °F 72.0 °F 58% 29.97 in 10.0 mi WSW 5.8 mph - N/A   Scattered Clouds
1:55 PM 88.9 °F 95.1 °F 71.4 °F 56% 29.96 in 10.0 mi SW 5.8 mph - N/A   Scattered Clouds
2:15 PM 89.1 °F 95.5 °F 71.4 °F 56% 29.95 in 10.0 mi South 8.1 mph - N/A   Scattered Clouds
2:35 PM 89.8 °F 96.5 °F 71.8 °F 55% 29.93 in 10.0 mi SSW 6.9 mph - N/A   Clear
2:55 PM 89.2 °F 95.9 °F 71.4 °F 56% 29.93 in 10.0 mi South 10.4 mph - N/A   Scattered Clouds
3:15 PM 89.2 °F 95.9 °F 71.4 °F 56% 29.91 in 10.0 mi SSW 6.9 mph - N/A   Scattered Clouds
3:35 PM 90.3 °F 96.7 °F 71.1 °F 53% 29.91 in 10.0 mi SW 10.4 mph - N/A   Scattered Clouds
3:55 PM 90.5 °F 96.5 °F 70.7 °F 52% 29.91 in 10.0 mi WSW 9.2 mph - N/A   Scattered Clouds
4:15 PM 89.4 °F 95.3 °F 70.5 °F 54% 29.89 in 10.0 mi SSW 8.1 mph - N/A   Scattered Clouds
4:35 PM 73.0 °F - 68.0 °F 84% 29.98 in - West 4.6 mph - 0.09 in   Unknown
4:55 PM 69.8 °F - 68.2 °F 95% 29.96 in 2.0 mi Calm Calm - 0.35 in Rain Rain
5:15 PM 70.2 °F - 68.9 °F 96% 29.98 in 4.0 mi Calm Calm - 0.01 in Rain Rain
5:35 PM 70.2 °F - 68.9 °F 96% 29.94 in 7.0 mi Calm Calm - 0.01 in Rain Light Rain
5:55 PM 70.3 °F - 69.6 °F 98% 29.95 in 5.0 mi SSW 8.1 mph - 0.02 in Rain Light Rain
6:15 PM 69.8 °F - 68.9 °F 97% 29.97 in 7.0 mi SW 3.5 mph - N/A Rain Light Rain
6:35 PM 70.0 °F - 68.5 °F 95% 29.96 in 7.0 mi Calm Calm - 0.01 in Rain Light Rain
6:55 PM 70.0 °F - 68.9 °F 96% 29.95 in 7.0 mi SSW 3.5 mph - 0.01 in Rain Light Rain
7:15 PM 70.2 °F - 68.9 °F 96% 29.95 in 10.0 mi Calm Calm - N/A   Clear
7:35 PM 69.8 °F - 68.5 °F 96% 29.95 in 7.0 mi Calm Calm - N/A   Clear
7:55 PM 70.0 °F - 68.9 °F 96% 29.96 in 10.0 mi Calm Calm - N/A   Clear
8:15 PM 70.2 °F - 68.9 °F 96% 29.97 in 10.0 mi SW 3.5 mph - N/A   Clear
8:35 PM 70.0 °F - 68.9 °F 96% 29.95 in 10.0 mi SW 3.5 mph - N/A   Clear
8:55 PM 69.8 °F - 68.9 °F 97% 29.96 in 10.0 mi Calm Calm - N/A   Clear
9:15 PM 69.8 °F - 68.9 °F 97% 29.96 in 10.0 mi Calm Calm - N/A   Clear
9:35 PM 69.4 °F - 68.5 °F 97% 29.94 in 10.0 mi Calm Calm - N/A   Clear
9:55 PM 69.1 °F - 68.4 °F 98% 29.95 in 7.0 mi Calm Calm - N/A   Clear
10:15 PM 68.7 °F - 68.2 °F 98% 29.96 in 7.0 mi Calm Calm - N/A   Clear
10:35 PM 68.5 °F - 68.0 °F 98% 29.96 in 7.0 mi Calm Calm - N/A   Scattered Clouds
10:55 PM 68.5 °F - 68.4 °F 99% 29.96 in 5.0 mi Calm Calm - N/A   Mostly Cloudy
11:15 PM 68.9 °F - 68.9 °F 100% 29.96 in 7.0 mi South 3.5 mph - N/A   Mostly Cloudy
11:35 PM 68.9 °F - 68.5 °F 99% 29.96 in 5.0 mi Calm Calm - N/A   Mostly Cloudy
11:55 PM 68.9 °F - 68.7 °F 99% 29.97 in 5.0 mi SW 3.5 mph - N/A   Mostly Cloudy